Sitka, AK

5:47 AM AKDT on August 19, 2017 (GMT -0800)
Sitka Rocky Gutierrez

Weather History for PASI - January, 2013

Change the Weather History Date:

Wednesday, January 30, 2013

  Actual Average Record
Temperature  
Mean Temperature 39 °F -  
Max Temperature 41 °F 38 °F 52 °F (2000)
Min Temperature 37 °F 30 °F 4 °F (1989)
Degree Days  
Heating Degree Days 26    
Moisture  
Dew Point 38 °F    
Average Humidity 98    
Maximum Humidity 100    
Minimum Humidity 86    
Precipitation  
Precipitation 0.04 in - - ()
Sea Level Pressure  
Sea Level Pressure 30.04 in    
Wind  
Wind Speed 5 mph (East)    
Max Wind Speed 9 mph    
Max Gust Speed -    
Visibility 8 miles    
Events Rain    
Averages and records for this station are not official NWS values.
T = Trace of Precipitation, MM = Missing Value Source: NWS Daily Summary

Daily Weather History Graph

Daily Weather History Graph

Search for Another Location

Airport or City:

Trip Planner

Search our weather history database for the weather conditions in past years. The results will help you decide how hot, cold, wet, or windy it might be!

Date:

Astronomy

Jan. 30, 2013 Rise Set
Actual Time 8:03 AM AKST 4:26 PM AKST
Civil Twilight 7:20 AM AKST 5:09 PM AKST
Nautical Twilight 6:34 AM AKST 5:56 PM AKST
Astronomical Twilight 5:49 AM AKST 6:40 PM AKST
Moon 9:36 PM AKST (1/30) 8:39 AM AKST (1/30)
Length of Visible Light 9h 48m
Length of Day
8h 22m
Waning Gibbous, 86% of the Moon is Illuminated
Jan 30
Waning Gibbous
Feb 3
Last Quarter
Feb 9
New
Feb 17
First Quarter
Feb 25
Full

Hourly Weather History & Observations

Time (AKST) Temp. Windchill Dew Point Humidity Pressure Visibility Wind Dir Wind Speed Gust Speed Precip Events Conditions
12:05 AM 37.4 °F 32.8 °F 37.4 °F 100% 30.09 in 2.5 mi East 5.8 mph - 0.00 in Rain Light Rain
12:29 AM 39.2 °F 34.2 °F 39.2 °F 100% 30.09 in 1.8 mi East 6.9 mph - 0.01 in Rain Light Rain
12:42 AM 37.4 °F 32.1 °F 37.4 °F 100% 30.09 in 3.0 mi East 6.9 mph - 0.02 in Rain Light Rain
12:53 AM 37.9 °F 33.5 °F 37.9 °F 100% 30.10 in 2.0 mi East 5.8 mph - 0.02 in   Overcast
1:08 AM 37.4 °F 32.8 °F 37.4 °F 100% 30.10 in 3.0 mi ESE 5.8 mph - 0.00 in   Overcast
1:22 AM 39.2 °F 35.0 °F 37.4 °F 93% 30.10 in 2.5 mi ESE 5.8 mph - 0.01 in   Overcast
1:33 AM 37.4 °F 32.8 °F 37.4 °F 100% 30.11 in 3.0 mi East 5.8 mph - 0.01 in   Overcast
1:41 AM 37.4 °F 32.8 °F 37.4 °F 100% 30.11 in 2.5 mi East 5.8 mph - 0.01 in   Overcast
1:53 AM 37.9 °F 34.4 °F 37.9 °F 100% 30.11 in 3.0 mi ESE 4.6 mph - 0.01 in   Overcast
2:13 AM 37.4 °F 32.8 °F 37.4 °F 100% 30.12 in 4.0 mi ESE 5.8 mph - N/A   Overcast
3:08 AM 37.4 °F 32.1 °F 37.4 °F 100% 30.11 in 10.0 mi East 6.9 mph - 0.00 in Rain Light Rain
3:53 AM 37.9 °F 32.7 °F 37.9 °F 100% 30.12 in 10.0 mi SE 6.9 mph - 0.00 in   Overcast
4:05 AM 37.4 °F 32.8 °F 37.4 °F 100% 30.11 in 10.0 mi SE 5.8 mph - N/A   Overcast
4:53 AM 37.0 °F 31.6 °F 37.0 °F 100% 30.12 in 10.0 mi East 6.9 mph - N/A   Overcast
5:53 AM 39.0 °F 35.7 °F 37.9 °F 96% 30.12 in 7.0 mi SE 4.6 mph - 0.00 in Rain Light Rain
6:44 AM 37.4 °F 32.8 °F 37.4 °F 100% 30.12 in 7.0 mi ESE 5.8 mph - 0.00 in   Overcast
6:53 AM 37.9 °F 34.4 °F 37.0 °F 97% 30.12 in 7.0 mi East 4.6 mph - 0.00 in   Overcast
7:53 AM 37.9 °F 32.7 °F 37.9 °F 100% 30.11 in 10.0 mi ESE 6.9 mph - N/A   Overcast
8:53 AM 39.0 °F - 37.9 °F 96% 30.11 in 10.0 mi Calm Calm - N/A   Overcast
9:26 AM 37.4 °F - 37.4 °F 100% 30.11 in 10.0 mi Calm Calm - N/A   Overcast
9:53 AM 37.9 °F - 37.9 °F 100% 30.11 in 10.0 mi Calm Calm - N/A   Overcast
10:53 AM 39.0 °F - 39.0 °F 100% 30.11 in 10.0 mi Calm Calm - N/A   Overcast
11:53 AM 39.9 °F - 39.9 °F 100% 30.09 in 10.0 mi Calm Calm - N/A   Overcast
12:53 PM 39.9 °F - 39.9 °F 100% 30.07 in 9.0 mi Calm Calm - N/A   Overcast
1:53 PM 41.0 °F - 39.0 °F 93% 30.04 in 9.0 mi Calm Calm - N/A   Overcast
2:53 PM 39.9 °F - 39.9 °F 100% 30.01 in 9.0 mi Calm Calm - 0.00 in Rain Light Rain
3:53 PM 39.9 °F - 39.9 °F 100% 29.98 in 9.0 mi Calm Calm - 0.00 in   Smoke
4:13 PM 39.2 °F - 39.2 °F 100% 29.97 in 10.0 mi Calm Calm - N/A   Smoke
4:53 PM 39.0 °F 36.8 °F 39.0 °F 100% 29.95 in 10.0 mi NNW 3.5 mph - N/A   Smoke
5:53 PM 39.0 °F 33.4 °F 37.9 °F 96% 29.92 in 10.0 mi NNW 8.1 mph - 0.01 in   Overcast
6:53 PM 39.0 °F 34.0 °F 37.9 °F 96% 29.89 in 10.0 mi NNW 6.9 mph - 0.00 in Rain Light Rain
7:53 PM 39.0 °F 32.8 °F 37.9 °F 96% 29.88 in 10.0 mi NNW 9.2 mph - 0.00 in Rain Light Rain
8:53 PM 39.0 °F 32.8 °F 37.0 °F 93% 29.85 in 10.0 mi NW 9.2 mph - 0.00 in   Overcast
9:53 PM 39.0 °F 34.8 °F 37.0 °F 93% 29.83 in 10.0 mi NNW 5.8 mph - N/A   Overcast
10:53 PM 39.0 °F 33.4 °F 37.0 °F 93% 29.81 in 10.0 mi NNW 8.1 mph - N/A   Overcast
11:53 PM 39.0 °F - 35.1 °F 86% 29.80 in 10.0 mi Calm Calm - 0.00 in Rain Light Rain